{"data":{"norad_id":68630,"epoch":"2026-09-19T05:50:48.811200Z","epoch_age_seconds":171683,"freshness":"FRESH","line1":"1 68630U 26074D   26262.24362050  .00004669  00000+0  19111-3 0  9992","line2":"2 68630  60.0210 176.9039 0036070  89.8605 270.6609 15.25478031 25127","mean_motion":15.25478031,"eccentricity":0.003607,"inclination_deg":60.021,"raan_deg":176.9039,"arg_perigee_deg":89.8605,"mean_anomaly_deg":270.6609,"bstar":0.00019111,"rev_number":2512,"period_min":94.396639658982,"perigee_km":464.57934653145,"apogee_km":514.12140044379,"semimajor_km":6867.4873734876,"source":"CELESTRAK","updated_at":"2026-09-20T09:00:24.365202Z"}}